| time (UTC) | temp F | wind direction | speed MPH | gust MPH | rain 1hr in | rain 24hr in | rain mn in | humidity % | barometer mb |
| 20260504041825 | 52 | 246 | 6.0 | 9.0 | 0.00 | 0.00 | 0.00 | 58 | 1013.8 |
| 20260504040318 | 52 | 217 | 6.0 | 8.0 | 0.00 | 0.00 | 0.00 | 58 | 1013.8 |
| 20260504034810 | 52 | 219 | 4.0 | 8.0 | 0.00 | 0.00 | 0.00 | 58 | 1013.7 |
| 20260504033328 | 52 | 226 | 5.0 | 12.0 | 0.00 | 0.00 | 0.00 | 59 | 1013.8 |
| 20260504031815 | 52 | 226 | 5.0 | 8.0 | 0.00 | 0.00 | 0.00 | 60 | 1013.8 |
| 20260504030311 | 53 | 220 | 4.0 | 7.0 | 0.00 | 0.00 | 0.00 | 59 | 1013.8 |
| 20260504024817 | 53 | 233 | 4.0 | 7.0 | 0.00 | 0.00 | 0.00 | 58 | 1013.8 |
| 20260504023330 | 54 | 231 | 5.0 | 13.0 | 0.00 | 0.00 | 0.00 | 55 | 1013.9 |
| 20260504021822 | 55 | 264 | 6.0 | 21.0 | 0.00 | 0.00 | 0.00 | 53 | 1014.1 |
| 20260504020328 | 55 | 252 | 7.0 | 20.0 | 0.00 | 0.00 | 0.00 | 54 | 1013.9 |
| 20260504014824 | 55 | 278 | 10.0 | 18.0 | 0.00 | 0.00 | 0.00 | 54 | 1014.2 |
| 20260504013312 | 55 | 273 | 6.0 | 12.0 | 0.00 | 0.00 | 0.00 | 51 | 1014.2 |
| 20260504011826 | 55 | 267 | 7.0 | 17.0 | 0.00 | 0.00 | 0.00 | 52 | 1013.9 |
| 20260504010315 | 55 | 263 | 9.0 | 19.0 | 0.00 | 0.00 | 0.00 | 52 | 1014.1 |
| 20260504004825 | 55 | 250 | 12.0 | 24.0 | 0.00 | 0.00 | 0.00 | 51 | 1014.2 |
| 20260504003315 | 55 | 264 | 12.0 | 19.0 | 0.00 | 0.00 | 0.00 | 51 | 1014.3 |
| 20260504001826 | 55 | 273 | 12.0 | 27.0 | 0.00 | 0.00 | 0.00 | 49 | 1014.4 |
| 20260504000311 | 55 | 243 | 7.0 | 18.0 | 0.00 | 0.00 | 0.00 | 49 | 1014.3 |
| 20260503234824 | 54 | 274 | 6.0 | 16.0 | 0.00 | 0.00 | 0.00 | 49 | 1014.2 |
| 20260503233320 | 55 | 289 | 12.0 | 20.0 | 0.00 | 0.00 | 0.00 | 48 | 1014.2 |
| 20260503231810 | 55 | 284 | 17.0 | 25.0 | 0.00 | 0.00 | 0.00 | 46 | 1014.1 |
| 20260503230343 | 56 | 291 | 13.0 | 24.0 | 0.00 | 0.00 | 0.00 | 47 | 1014.1 |
| 20260503224834 | 56 | 275 | 14.0 | 27.0 | 0.00 | 0.00 | 0.00 | 46 | 1013.9 |
| 20260503223322 | 57 | 307 | 11.0 | 25.0 | 0.00 | 0.00 | 0.00 | 43 | 1013.6 |
| 20260503221835 | 57 | 275 | 7.0 | 16.0 | 0.00 | 0.00 | 0.00 | 44 | 1013.5 |
| 20260503220324 | 57 | 275 | 10.0 | 18.0 | 0.00 | 0.00 | 0.00 | 43 | 1013.6 |
| 20260503214836 | 57 | 250 | 7.0 | 20.0 | 0.00 | 0.00 | 0.00 | 43 | 1013.4 |
| 20260503213324 | 57 | 256 | 14.0 | 23.0 | 0.00 | 0.00 | 0.00 | 40 | 1013.4 |
| 20260503211820 | 58 | 270 | 10.0 | 23.0 | 0.00 | 0.00 | 0.00 | 42 | 1013.3 |
| 20260503210354 | 59 | 253 | 10.0 | 19.0 | 0.00 | 0.00 | 0.00 | 42 | 1013.3 |
| 20260503204841 | 58 | 290 | 9.0 | 15.0 | 0.00 | 0.00 | 0.00 | 44 | 1013.5 |
| 20260503203311 | 57 | 293 | 11.0 | 22.0 | 0.00 | 0.00 | 0.00 | 43 | 1013.6 |
| 20260503201843 | 57 | 269 | 5.0 | 8.0 | 0.00 | 0.00 | 0.00 | 46 | 1013.9 |
| 20260503200311 | 55 | 272 | 4.0 | 11.0 | 0.00 | 0.00 | 0.00 | 48 | 1014.1 |
| 20260503194823 | 55 | 250 | 5.0 | 9.0 | 0.00 | 0.00 | 0.00 | 45 | 1014.4 |
| 20260503193313 | 54 | 287 | 6.0 | 12.0 | 0.00 | 0.00 | 0.00 | 46 | 1014.7 |
| 20260503191824 | 54 | 252 | 3.0 | 14.0 | 0.00 | 0.00 | 0.00 | 49 | 1014.9 |
| 20260503190338 | 54 | 260 | 5.0 | 10.0 | 0.00 | 0.00 | 0.00 | 48 | 1015.1 |
| 20260503184824 | 54 | 245 | 7.0 | 16.0 | 0.00 | 0.00 | 0.00 | 46 | 1015.3 |
| 20260503183321 | 53 | 273 | 9.0 | 18.0 | 0.00 | 0.00 | 0.00 | 44 | 1015.6 |
| 20260503181833 | 53 | 257 | 9.0 | 16.0 | 0.00 | 0.00 | 0.00 | 45 | 1015.8 |
| 20260503180320 | 52 | 293 | 7.0 | 16.0 | 0.00 | 0.00 | 0.00 | 46 | 1016.2 |
| 20260503174833 | 52 | 265 | 10.0 | 21.0 | 0.00 | 0.00 | 0.00 | 47 | 1016.0 |
| 20260503173321 | 52 | 287 | 8.0 | 16.0 | 0.00 | 0.00 | 0.00 | 42 | 1016.3 |
| 20260503171834 | 53 | 302 | 4.0 | 17.0 | 0.00 | 0.00 | 0.00 | 48 | 1016.4 |
| 20260503170322 | 52 | 295 | 8.0 | 16.0 | 0.00 | 0.00 | 0.00 | 45 | 1016.5 |
| 20260503150313 | 49 | 262 | 5.0 | 13.0 | 0.00 | 0.00 | 0.00 | 55 | 1017.5 |
| 20260503140313 | 47 | 249 | 3.0 | 10.0 | 0.00 | 0.00 | 0.00 | 62 | 1017.9 |
| 20260503130313 | 44 | 207 | 5.0 | 8.0 | 0.00 | 0.00 | 0.00 | 73 | 1018.5 |
| 20260503110334 | 37 | 250 | 2.0 | 5.0 | 0.00 | 0.00 | 0.00 | 81 | 1018.3 |
| 20260503090325 | 36 | 231 | 2.0 | 5.0 | 0.00 | 0.00 | 0.00 | 88 | 1017.8 |
| 20260503080351 | 36 | 238 | 1.0 | 4.0 | 0.00 | 0.00 | 0.00 | 87 | 1018.0 |
| 20260503071814 | 37 | 258 | 0.0 | 3.0 | 0.00 | 0.00 | 0.00 | 85 | 1018.0 |
| 20260503070311 | 38 | 236 | 1.0 | 3.0 | 0.00 | 0.00 | 0.00 | 85 | 1018.0 |
| 20260503060329 | 39 | 231 | 2.0 | 6.0 | 0.00 | 0.00 | 0.00 | 82 | 1018.3 |
| 20260503054840 | 39 | 205 | 2.0 | 7.0 | 0.00 | 0.00 | 0.00 | 81 | 1018.3 |
| 20260503053334 | 39 | 229 | 3.0 | 6.0 | 0.00 | 0.00 | 0.00 | 81 | 1018.4 |
| 20260503051844 | 39 | 221 | 3.0 | 5.0 | 0.00 | 0.00 | 0.00 | 80 | 1018.6 |
| 20260503050337 | 39 | 242 | 2.0 | 3.0 | 0.00 | 0.00 | 0.00 | 80 | 1018.7 |
| 20260503044822 | 39 | 255 | 2.0 | 3.0 | 0.00 | 0.00 | 0.00 | 79 | 1018.8 |
| 20260503043317 | 39 | 238 | 1.0 | 4.0 | 0.00 | 0.00 | 0.00 | 79 | 1018.9 |